Location: Czekanka
(50.4925°N, 19.2643°E)
Time: 02:03:03
(UTC+00:00)

CZ-2C R/B - Pass Details

Date: 24 September 2024
Orbit: 703 x 903 km, 98.2° (Epoch: 09 October)

Event Time Altitude Azimuth Distance (km) Brightness Sun altitude
Rises 00:18:57 0° 16° (NNE) 3,540 7.4 -35.4°
Reaches altitude 10° 00:21:25 10° 20° (NNE) 2,595 6.5 -35.2°
Enters shadow 00:25:44 47° 48° (NE) 1,185 4.2 -34.8°
